Theta_e
314 313 314 313 313 314 313 313 314 315 316 316 318 318 319 320 318 311 306 311 316 322 321 311 307 307 309 305 306 305 299 295 294 294 296 298 296 301 303 300 303 304 303 306 310
315 314 313 313 313 314 313 313 313 314 315 316 317 318 318 319 310 306 310 318 320 321 312 306 304 305 304 303 304 303 298 295 297 298 297 297 299 300 300 301 302 303 306 307 310
316 315 314 313 313 313 314 312 313 314 315 315 317 318 318 318 306 304 314 318 319 315 311 306 306 305 301 303 301 300 298 297 296 297 299 299 299 301 300 299 301 299 301 306 309
317 315 314 313 313 313 314 312 313 314 314 315 317 317 319 312 299 307 314 315 316 313 307 304 304 302 300 298 300 295 298 298 298 299 299 297 300 299 300 301 303 303 302 307 307
317 317 316 314 312 313 314 313 312 313 314 315 316 318 314 304 303 309 315 316 311 308 305 303 301 302 298 299 300 297 297 299 300 299 299 299 299 299 300 303 304 301 303 305 306
318 317 316 314 313 312 313 313 312 313 313 314 316 317 309 299 307 310 310 311 309 308 305 304 303 304 300 298 298 300 299 299 299 299 299 297 299 299 301 303 301 299 302 304 305
318 317 316 315 313 312 313 313 312 312 313 314 315 311 305 302 308 311 312 310 310 308 304 306 306 303 303 298 302 300 296 298 298 298 298 298 295 297 302 302 299 298 300 301 304
318 317 315 315 313 312 312 313 312 312 313 314 315 308 301 307 311 308 311 310 311 310 308 309 309 304 302 302 299 296 297 293 296 297 298 297 293 298 301 300 298 297 298 299 302
317 317 316 315 314 312 312 313 312 312 313 313 306 305 299 308 304 307 310 308 309 308 307 307 307 302 301 298 295 295 293 292 292 297 297 296 295 299 301 300 298 297 298 298 299
317 317 316 315 314 312 312 312 311 310 306 303 302 299 299 299 304 306 309 309 307 305 303 301 303 299 298 297 292 292 291 289 291 294 295 295 295 299 301 300 299 297 297 298 298
317 317 316 314 313 311 309 303 299 298 300 298 298 298 298 303 305 304 307 306 306 303 297 297 296 294 296 297 291 293 293 292 291 294 292 294 295 297 300 300 300 298 297 297 297
318 317 316 315 313 310 307 297 298 299 295 297 298 298 300 303 298 302 306 301 301 296 296 294 292 294 295 293 292 292 291 291 291 292 291 290 290 296 297 299 300 299 296 296 296
318 317 316 314 312 308 302 298 303 302 295 295 297 297 298 301 298 299 304 301 298 295 294 293 293 294 293 292 291 291 291 289 289 291 294 292 292 293 297 298 300 300 298 295 295
317 317 315 313 305 304 299 302 303 303 296 293 292 296 298 301 296 301 303 301 297 294 294 293 294 293 292 291 292 289 292 291 290 290 289 290 291 292 295 295 297 299 296 295 295
317 316 315 311 304 298 298 303 304 305 282 296 291 298 299 296 296 296 301 300 295 293 294 291 291 291 290 290 292 291 293 292 291 290 289 288 286 293 292 291 294 297 295 295 294
317 316 314 300 300 300 302 303 307 289 279 287 291 291 291 293 294 296 297 300 299 294 294 292 295 294 292 291 292 294 292 292 291 290 287 288 286 291 290 292 294 296 295 295 294
317 315 310 304 299 301 301 300 284 281 290 287 287 290 291 289 291 294 293 291 291 287 289 290 291 292 293 290 293 292 290 287 287 286 286 286 285 291 293 295 296 295 295 295 295
316 314 311 306 301 301 299 287 278 287 288 288 288 289 287 289 290 291 291 290 294 292 290 287 284 289 292 291 290 290 291 290 284 283 285 283 283 290 294 295 299 297 296 295 294
315 311 303 300 301 301 291 281 285 288 292 287 288 286 286 287 288 289 291 291 293 293 291 288 285 290 290 291 292 289 285 289 285 280 284 289 290 292 292 292 295 298 295 295 295
309 304 299 301 301 297 287 285 285 292 293 291 287 288 284 284 286 287 289 294 292 294 294 291 283 287 289 291 291 289 290 285 287 284 283 285 286 291 288 291 294 295 297 296 296
301 295 296 301 299 289 283 286 286 291 293 290 291 286 288 285 288 286 289 292 295 294 292 292 290 283 287 286 287 286 286 286 287 286 283 283 288 295 294 294 294 296 298 298 296
299 285 297 300 284 285 285 288 290 289 291 290 294 292 288 287 285 286 288 290 295 293 288 292 289 283 284 288 289 289 289 289 287 283 284 283 288 292 294 296 297 297 298 300 298
289 285 295 296 284 283 283 285 287 286 287 288 288 291 289 287 285 287 289 289 292 291 291 290 289 281 284 285 286 284 287 289 288 287 282 286 290 291 291 292 294 296 298 299 299
285 281 284 287 288 287 285 285 284 287 288 289 288 289 286 284 285 287 286 287 289 291 291 292 289 290 286 287 287 282 286 287 288 286 287 286 291 291 291 291 294 295 297 298 299
285 285 286 281 283 288 289 287 286 283 286 289 285 288 287 283 283 284 286 285 288 290 290 290 286 285 284 284 286 287 286 287 285 289 287 290 289 295 294 293 295 296 297 296 297
285 285 285 288 287 286 288 285 286 286 285 285 286 289 289 285 287 284 285 285 287 288 288 288 284 282 280 281 282 282 287 288 287 288 289 289 288 296 299 298 296 296 296 295 295
292 293 290 288 285 284 286 288 288 291 288 292 289 288 287 290 290 289 288 290 290 287 286 286 282 283 285 278 281 281 282 287 287 289 289 286 292 293 293 293 295 295 295 296 297
Wind_Speed
10 9 10 9 11 11 13 13 14 14 14 14 13 12 13 14 8 5 2 7 8 14 12 4 2 3 2 4 4 3 4 4 4 5 6 6 5 3 2 6 4 3 8 12 14
10 11 10 10 11 11 12 13 14 14 14 14 14 13 12 12 5 3 4 10 11 9 5 5 5 4 4 3 3 4 4 3 2 4 6 6 4 1 4 4 7 5 8 12 13
10 9 11 11 10 12 12 13 13 14 14 14 14 13 13 10 6 2 7 10 10 6 4 1 3 2 4 3 3 3 0 7 4 4 4 5 4 3 5 5 4 12 14 13 12
11 9 10 12 11 12 13 13 13 13 14 14 14 13 13 6 3 3 10 9 7 3 3 3 4 3 3 3 2 5 4 2 6 4 3 3 1 5 6 5 6 10 12 12 13
11 10 10 8 11 12 13 13 13 14 14 15 14 12 7 6 1 5 9 4 2 2 3 5 6 4 6 7 7 8 7 6 6 4 2 1 6 6 7 3 7 8 10 10 11
11 10 9 8 8 9 12 13 14 14 14 14 14 15 5 7 2 6 7 2 4 4 2 2 3 7 9 5 3 8 9 9 5 3 1 4 4 3 3 3 7 7 9 9 10
12 11 10 8 8 9 10 14 14 14 15 14 12 6 6 2 2 5 3 3 4 1 5 6 6 2 8 9 9 12 8 7 5 3 1 4 8 9 1 3 8 7 7 9 10
12 11 10 9 10 9 10 12 15 15 15 12 10 6 3 1 3 1 2 5 7 10 12 9 9 9 4 14 6 4 5 5 6 3 3 2 1 5 2 4 8 6 7 8 10
14 10 10 10 10 8 10 13 15 16 12 10 5 4 2 2 3 2 3 2 5 6 7 4 2 5 7 8 5 4 3 4 5 3 1 6 6 4 3 5 8 5 6 7 9
15 14 12 11 9 6 9 13 11 11 6 4 3 3 4 3 3 2 1 1 2 6 5 1 2 5 7 6 4 5 5 4 4 5 6 8 14 7 6 6 8 5 4 6 8
17 15 13 12 10 5 4 4 3 4 5 4 2 2 3 3 2 3 1 4 4 3 5 3 5 8 13 5 2 2 2 3 2 2 4 10 13 11 8 8 9 5 4 6 8
19 18 15 14 10 5 2 4 4 4 6 5 2 1 0 2 3 4 2 7 7 7 5 4 6 4 5 5 7 6 5 1 0 2 2 5 13 13 10 7 6 6 4 6 8
20 18 17 14 8 6 5 6 3 4 6 4 4 4 3 6 2 10 5 3 7 7 7 5 5 6 4 7 8 3 3 4 1 3 7 8 8 4 6 6 6 7 2 3 7
21 21 19 17 5 4 4 4 2 2 4 6 7 5 6 4 6 1 0 2 3 7 7 1 7 5 5 6 4 5 2 2 3 4 2 2 4 5 8 6 8 5 2 4 4
22 23 25 23 8 5 1 9 5 0 4 6 5 3 4 7 9 4 1 4 7 7 5 5 9 8 6 1 2 5 5 2 1 3 4 6 5 5 5 6 7 5 5 5 5
20 23 27 6 1 3 7 1 5 3 12 4 5 8 10 5 5 6 4 3 4 5 7 5 3 2 4 4 1 10 5 3 2 2 3 4 4 6 7 5 9 10 11 8 6
21 26 23 11 8 10 5 3 6 10 1 6 6 8 14 8 8 10 13 10 9 6 5 5 6 3 5 6 4 4 5 3 2 3 3 2 5 6 7 8 9 12 12 8 6
18 26 19 5 15 16 8 6 7 6 6 2 4 9 9 11 8 9 14 12 13 5 7 10 7 12 11 4 3 11 3 3 4 3 3 2 7 2 5 7 7 7 8 6 5
14 11 6 10 18 15 10 5 9 6 13 14 9 6 7 5 4 10 15 10 14 16 6 10 5 3 3 1 3 7 7 3 2 2 2 4 5 5 7 8 10 9 8 8 8
3 9 4 17 13 11 5 12 7 4 8 11 10 9 10 9 8 10 14 11 7 17 4 7 6 3 4 2 3 4 2 3 3 3 5 4 6 4 12 14 13 13 12 11 10
4 6 7 15 10 5 8 8 7 8 6 12 12 6 7 8 8 8 9 2 16 18 9 7 5 5 4 11 11 6 4 4 3 3 2 2 4 3 10 15 15 14 14 12 12
3 6 11 21 8 4 5 8 6 7 8 4 2 8 9 11 11 8 11 5 10 15 13 5 5 5 6 2 3 4 6 10 5 6 2 2 5 1 4 8 9 11 11 11 12
1 4 3 14 13 10 3 4 5 7 8 6 5 4 3 9 7 10 8 3 8 11 15 10 5 6 1 3 3 7 9 8 3 1 7 4 1 1 5 7 8 11 11 11 11
3 7 3 5 3 16 12 9 8 2 5 3 4 4 5 2 3 6 6 3 1 3 5 3 5 4 8 4 9 10 15 16 10 4 6 8 2 6 10 11 11 12 13 14 13
4 4 6 12 14 18 23 17 17 9 2 6 2 10 8 5 5 5 3 3 2 3 1 3 6 2 2 3 3 4 15 21 21 13 12 1 11 7 14 16 15 13 12 13 15
3 4 3 1 12 13 21 17 24 11 14 13 12 19 13 8 9 9 9 4 3 6 4 3 2 2 2 2 2 5 11 18 18 12 15 10 13 11 5 10 13 13 14 13 14
5 2 2 7 17 16 17 24 29 23 13 15 22 7 11 8 9 7 8 7 2 7 8 7 6 4 5 1 2 9 15 20 14 15 18 16 15 6 9 10 13 14 15 15 14
Wind_Direction
288 296 308 317 322 332 332 333 335 335 336 332 332 332 333 334 300 231 35 347 312 317 310 281 179 104 90 72 9 320 231 165 149 178 131 142 200 149 356 269 240 298 300 314 323
273 290 296 307 312 323 327 330 331 332 332 331 327 328 329 330 276 77 46 325 315 310 262 212 155 161 95 75 20 297 256 118 51 86 144 147 225 171 254 252 260 284 322 326 322
259 268 290 298 305 310 322 324 327 329 329 328 324 323 322 310 257 85 8 340 323 285 257 251 138 152 105 72 21 9 56 136 130 97 114 132 208 228 279 258 349 323 325 328 328
239 252 273 291 297 302 315 318 322 325 326 325 322 319 318 252 267 55 347 335 322 285 229 161 196 151 120 118 98 112 85 99 125 115 128 180 319 244 250 322 334 318 323 321 336
225 232 241 264 290 298 307 313 317 321 323 323 320 319 287 227 104 5 332 340 256 220 232 206 192 167 134 115 98 101 136 113 111 128 83 294 238 290 267 294 319 319 324 335 335
231 225 237 245 274 287 303 310 313 317 319 320 318 316 256 247 12 345 336 349 29 222 150 194 182 111 95 83 6 117 133 124 146 131 118 279 246 285 157 320 306 324 345 352 348
229 227 226 236 251 277 295 308 309 312 313 313 314 303 254 1 353 346 7 36 18 68 113 90 102 221 125 112 113 126 123 149 168 172 233 304 240 231 48 302 298 330 346 1 5
234 225 224 229 243 267 290 304 308 307 306 303 306 284 286 73 342 329 307 91 84 79 93 79 100 83 70 121 117 178 199 196 141 190 140 263 48 168 120 301 304 327 348 6 5
219 226 235 229 236 258 291 304 304 302 294 289 268 260 239 126 203 47 341 133 112 93 76 103 64 98 144 143 135 198 226 241 172 194 229 221 303 132 222 260 288 329 350 6 1
210 212 212 242 233 249 299 297 294 300 238 238 250 252 163 183 135 105 68 207 161 131 134 182 146 159 174 185 180 186 210 205 214 160 221 230 258 256 244 253 280 305 337 9 9
199 204 208 216 234 244 325 310 227 213 229 259 65 351 141 86 206 138 94 187 187 197 194 110 227 208 195 206 57 51 130 145 157 108 283 247 270 269 249 247 262 288 333 23 24
195 199 196 203 196 181 106 263 346 349 270 205 240 194 144 270 167 168 209 206 203 183 152 179 240 80 94 149 133 120 153 196 249 226 260 296 277 270 243 247 273 295 323 21 22
197 194 190 181 171 220 178 223 357 329 263 173 194 200 164 190 214 166 206 191 205 181 183 252 73 139 180 167 159 155 238 192 337 222 239 286 265 209 199 229 240 254 311 33 32
198 186 176 146 155 189 200 208 157 22 278 188 202 183 163 195 203 114 169 271 173 193 172 123 144 177 184 191 252 186 127 152 161 239 307 237 307 190 196 222 224 232 133 57 54
199 185 164 153 125 186 353 121 116 213 268 131 149 82 153 193 125 164 86 191 181 144 192 106 164 172 192 36 253 80 153 152 172 269 311 180 255 122 159 228 214 165 138 187 175
204 180 164 119 21 80 110 199 67 74 244 181 140 164 160 184 146 125 167 73 108 119 69 94 30 255 43 91 297 140 139 164 203 272 246 133 260 179 179 190 148 151 190 194 171
203 178 167 154 178 128 104 51 109 209 267 190 188 180 188 166 162 187 180 170 159 124 167 139 167 139 176 124 133 219 192 163 211 210 256 142 237 297 147 144 166 173 192 188 158
217 183 190 177 131 123 123 93 185 208 204 109 142 169 187 153 184 187 181 194 215 236 145 166 201 185 175 246 215 198 286 246 221 211 80 157 230 195 124 144 146 173 177 158 161
236 181 156 148 136 144 129 181 211 204 180 153 148 161 199 190 156 172 201 206 203 205 180 187 126 107 189 214 267 167 215 17 98 88 271 189 234 168 173 175 193 192 183 190 172
222 167 126 147 157 143 158 194 236 257 158 168 182 188 178 176 162 195 184 207 201 191 248 179 119 196 124 205 214 281 24 164 217 195 238 159 267 216 211 194 193 199 198 194 176
185 183 135 138 124 189 181 194 180 222 184 189 198 146 184 175 175 194 200 154 199 183 182 159 133 136 154 207 182 169 202 218 307 262 255 277 233 14 189 184 187 193 195 189 179
236 170 164 143 146 231 191 168 203 168 202 206 252 181 173 169 176 205 215 229 188 168 175 167 97 154 184 67 308 285 239 193 222 181 234 335 274 84 91 138 168 179 179 185 177
192 112 220 182 172 200 123 139 215 156 181 169 179 165 152 176 171 198 181 25 191 186 172 176 176 120 111 194 189 225 201 231 123 22 202 173 192 101 139 160 173 169 170 177 177
208 132 211 204 312 174 178 180 191 218 163 152 153 120 128 159 17 175 192 123 151 224 7 180 183 211 211 141 140 195 200 197 206 178 157 232 299 190 197 199 190 191 172 178 183
213 198 179 184 218 194 189 166 187 157 184 157 236 216 169 146 167 201 152 126 148 188 110 186 215 166 82 42 273 242 185 191 204 205 197 221 229 216 203 200 199 198 185 178 185
217 186 170 208 200 190 193 188 182 174 154 191 222 204 192 158 187 177 154 175 160 161 180 174 221 131 221 2 331 266 218 201 216 230 243 262 275 242 248 190 195 193 185 196 196
176 228 274 188 185 179 197 184 195 174 210 193 197 153 186 169 116 81 81 89 82 179 175 164 147 141 230 58 318 259 208 200 204 214 213 217 222 163 197 216 204 191 196 199 199